Tracking 20041 objects as of 22-Nov-2019
Live streaming from Space Station
objects crossing your sky now

SL-8 DEB

Track SL-8 DEB now!
10-day predictions


NORAD ID: 21724
Int'l Code: 1991-009BZ
Perigee: 1,434.0 km
Apogee: 1,762.0 km
Inclination: 74.0 °
Period: 118.0 minutes
Semi major axis: 7968 km
RCS: 0.1023 m2 (medium)
Launch date: February 12, 1991
Source: Commonwealth of Independent States (former USSR) (CIS)
Launch site: PLESETSK MISSILE AND SPACE COMPLEX (PKMTR)

Note: This is SATELLITE DEBRIS
aabbcc
Your satellite tracking list
Your tracking list is empty




NASA's NSSDC Master Catalog

Two Line Element Set (TLE):
1 21724U 91009BZ  19325.81882681 -.00000086 +00000-0 -64699-3 0  9990
2 21724 073.9779 262.4470 0205757 142.4842 232.4865 12.20387245253886
Source of the keplerian elements: AFSPC